Regional Weather Roundup
Issued by NWS Sioux Falls, SD

Home | Current Version | Previous Version | Text Only | Print | Product List | Glossary Off
Versions: 1 2 3 4 5 6 7 8 9 10 11 12 13 14 15 16 17 18 19 20 21 22 23 24 25 26 27 28 29 30 31 32 33 34 35 36 37 38 39 40 41 42 43 44 45 46 47 48 49 50

000
ASUS43 KFSD 050210
RWRFSD

WEATHER ROUNDUP FOR SE SOUTH DAKOTA/SW MINNESOTA/NW IOWA
NATIONAL WEATHER SERVICE SIOUX FALLS SD
900 PM CDT SAT JUL 04 2015

NOTE: "FAIR" INDICATES FEW OR NO CLOUDS BELOW 12,000 FEET WITH NO
SIGNIFICANT WEATHER AND OR OBSTRUCTIONS TO VISIBILITY.


SDZ038>040-050-052>070-050300-
SOUTHEAST SOUTH DAKOTA

CITY           SKY/WX    TMP DP  RH WIND       PRES   REMARKS
BROOKINGS      CLEAR     75  63  64 S12G17    29.87F
CHAMBERLAIN    CLEAR     78  70  76 SE10      29.77R
HURON          CLEAR     78  67  68 SE13G24   29.77F
MADISON        FAIR      75  68  78 S12       29.87S
MITCHELL       CLEAR     78  67  68 S14       29.81S
SIOUX FALLS    PTCLDY    76  64  66 S14       29.87R
WINNER         FAIR      86  63  45 S14       29.75F
YANKTON        CLEAR     75  64  69 SE8       29.84S
$$

MNZ071-072-080-081-089-090-097-098-050300-
SOUTHWEST MINNESOTA

CITY           SKY/WX    TMP DP  RH WIND       PRES   REMARKS
FAIRMONT       PTCLDY    70  57  64 S6        29.91S
JACKSON        CLEAR     72  61  68 S7        29.92S
MARSHALL       CLEAR     75  61  60 S8          N/A
MONTEVIDEO     CLEAR     75  63  64 S6        29.84F HAZE
PIPESTONE      CLEAR     72  63  73 S6        29.88F
REDWOOD FALLS  CLEAR     75  63  66 S10       29.87R HAZE
TRACY          CLEAR     75  64  67 S5        29.88S
WINDOM         CLEAR     73  61  64 S5        29.90S
WORTHINGTON    CLEAR     72  61  68 S8        29.91R
$$

IAZ001>003-012>014-020>022-031-032-NEZ013-014-SDZ071-050300-
NORTHWEST IOWA

CITY           SKY/WX    TMP DP  RH WIND       PRES   REMARKS
CHEROKEE       CLEAR     70  64  81 S6        29.89F
DENISON        CLEAR     72  61  68 MISG      29.90F
ESTHERVILLE    CLEAR     69  61  75 S8        29.91S
LE MARS        CLEAR     73  66  78 S8        29.90R
ORANGE CITY    CLEAR     72  63  73 S5        29.90S
SHELDON        CLEAR     72  68  88 S7        29.89S
SIOUX CITY     CLEAR     75  63  66 S9        29.88S
SPENCER        CLEAR     70  60  70 S8        29.90F
STORM LAKE     PTCLDY    68  63  83 S8        29.93S
$$

ABBREVIATIONS USED IN REMARKS
   TC - TEMPERATURE IN CELSIUS
  WCI - WIND CHILL INDEX
   HX - HEAT INDEX
  VSB - VISIBILITY



USA.gov is the U.S. government's official web portal to all federal, state and local government web resources and services.